Weather History for KFTW - May, 2012

Change the Weather History Date:

Saturday, May 19, 2012

  Actual Average Record
Temperature  
Mean Temperature 78 °F -  
Max Temperature 89 °F 83 °F 99 °F (2008)
Min Temperature 66 °F 62 °F 51 °F (2002)
Cooling Degree Days 12    
Growing Degree Days 28 (Base 50)    
Moisture  
Dew Point 62 °F    
Average Humidity 61    
Maximum Humidity 94    
Minimum Humidity 39    
Precipitation  
Precipitation 0.00 in - - ()
Sea Level Pressure  
Sea Level Pressure 29.87 in    
Wind  
Wind Speed 15 mph (SSE)    
Max Wind Speed 22 mph    
Max Gust Speed 31 mph    
Visibility 9 miles    
Events      
Averages and records for this station are not official NWS values.
T = Trace of Precipitation, MM = Missing Value Source: NWS Daily Summary

Daily Weather History Graph

Daily Weather History Graph

Search for Another Location

Airport or City:

Trip Planner

Search our weather history database for the weather conditions in past years. The results will help you decide how hot, cold, wet, or windy it might be!

Date:

Astronomy

May. 19, 2012 Rise Set
Actual Time 6:27 AM CDT 8:24 PM CDT
Civil Twilight 6:00 AM CDT 8:52 PM CDT
Nautical Twilight 5:26 AM CDT 9:25 PM CDT
Astronomical Twilight 4:51 AM CDT 10:01 PM CDT
Moon 5:28 AM CDT (5/19) 7:31 PM CDT (5/19)
Length of Visible Light 14h 52m
Length of Day
13h 57m
Waning Crescent, 1% of the Moon is Illuminated
May 19
Waning Crescent
May 20
New
May 28
First Quarter
Jun 4
Full
Jun 11
Last Quarter

Hourly Weather History & Observations

Time (CDT) Temp. Heat Index Dew Point Humidity Pressure Visibility Wind Dir Wind Speed Gust Speed Precip Events Conditions
12:53 AM 73.9 °F - 60.1 °F 62% 29.83 in 10.0 mi South 12.7 mph - N/A   Clear
1:53 AM 73.0 °F - 61.0 °F 66% 29.83 in 10.0 mi South 16.1 mph 23.0 mph N/A   Clear
2:53 AM 72.0 °F - 62.1 °F 71% 29.84 in 10.0 mi South 15.0 mph 24.2 mph N/A   Clear
3:53 AM 70.0 °F - 63.0 °F 78% 29.83 in 10.0 mi South 12.7 mph - N/A   Clear
4:53 AM 68.0 °F - 64.0 °F 87% 29.84 in 9.0 mi SSE 10.4 mph - N/A   Clear
5:53 AM 66.9 °F - 64.9 °F 93% 29.84 in 8.0 mi SSE 11.5 mph - N/A   Scattered Clouds
6:03 AM 66.2 °F - 64.4 °F 94% 29.87 in 7.0 mi South 11.5 mph - N/A   Mostly Cloudy
6:53 AM 69.1 °F - 64.9 °F 87% 29.86 in 7.0 mi South 11.5 mph - N/A   Mostly Cloudy
7:53 AM 70.0 °F - 64.9 °F 84% 29.88 in 8.0 mi South 15.0 mph 23.0 mph N/A   Scattered Clouds
8:37 AM 71.6 °F - 64.4 °F 78% 29.91 in 8.0 mi South 18.4 mph 25.3 mph N/A   Mostly Cloudy
8:53 AM 73.0 °F - 64.9 °F 76% 29.89 in 9.0 mi South 15.0 mph 26.5 mph N/A   Mostly Cloudy
9:07 AM 73.4 °F - 64.4 °F 73% 29.92 in 9.0 mi South 19.6 mph 26.5 mph N/A   Scattered Clouds
9:53 AM 78.1 °F - 64.9 °F 64% 29.91 in 10.0 mi South 20.7 mph 24.2 mph N/A   Clear
10:53 AM 80.1 °F 81.5 °F 63.0 °F 56% 29.91 in 10.0 mi SSE 21.9 mph 26.5 mph N/A   Partly Cloudy
11:53 AM 82.9 °F 84.0 °F 63.0 °F 51% 29.91 in 10.0 mi South 18.4 mph 26.5 mph N/A   Clear
12:53 PM 86.0 °F 86.3 °F 62.1 °F 44% 29.89 in 10.0 mi South 20.7 mph 27.6 mph N/A   Clear
1:53 PM 88.0 °F 87.9 °F 61.0 °F 40% 29.88 in 10.0 mi South 18.4 mph 28.8 mph N/A   Clear
2:53 PM 88.0 °F 87.9 °F 61.0 °F 40% 29.86 in 10.0 mi SSE 19.6 mph 31.1 mph N/A   Clear
3:53 PM 88.0 °F 87.6 °F 60.1 °F 39% 29.85 in 10.0 mi SSE 21.9 mph 28.8 mph N/A   Clear
4:53 PM 89.1 °F 89.0 °F 61.0 °F 39% 29.84 in 10.0 mi SSE 19.6 mph 28.8 mph N/A   Clear
5:53 PM 88.0 °F 87.6 °F 60.1 °F 39% 29.84 in 10.0 mi South 21.9 mph 26.5 mph N/A   Clear
6:53 PM 86.0 °F 85.7 °F 60.1 °F 41% 29.84 in 10.0 mi South 17.3 mph 26.5 mph N/A   Clear
7:53 PM 82.9 °F 83.2 °F 60.1 °F 46% 29.85 in 10.0 mi SSE 15.0 mph 24.2 mph N/A   Clear
8:53 PM 81.0 °F 81.6 °F 60.1 °F 49% 29.88 in 10.0 mi SSE 12.7 mph - N/A   Clear
9:53 PM 79.0 °F - 57.9 °F 48% 29.91 in 10.0 mi SSE 10.4 mph - N/A   Clear
10:53 PM 78.1 °F - 57.9 °F 50% 29.90 in 10.0 mi SSE 16.1 mph 24.2 mph N/A   Clear
11:53 PM 78.1 °F - 57.9 °F 50% 29.91 in 10.0 mi SSE 15.0 mph - N/A   Clear